ONEWEB-0141 (47287 NORAD) Tracking and Keplerian Element Data

This shows tracking and keplerian element data for the satellite.

Feedback or suggestion? Click here.




ElementValue
Catalog47287
NameONEWEB-0141
Epoch Orbit173
Epoch Day60.91667824
Epoch Year2021
RAAN16.1026
Inclination87.6806
Eccentricity0.001287
Argument of Perigee20.8715
Mean Anonmoly195.2528
Mean Motion13.97711146
Decay Rate-0.0002576
L11 47287U 20100AF 21060.91667824 -.00025760 00000-0 -18324-1 0 9994
L22 47287 87.6806 16.1026 0012870 20.8715 195.2528 13.97711146 1735

Live tracking and technical data element details for ONEWEB-0141 (NORAD 47287). ONEWEB-0141 can be tracked NOW for your location showing map with azimuth and elevation plus other details from your city location.

Track the satellite on the map from your city or location and see movement details for azimuth, elevation, latitude, longitude, range, height, and movement on the map or in text.







IsCatalogInMostPopularTable: catalog: 47287, numindb: 23
Update: records affected: 1



GetName: 47287 ONEWEB-0141

Hit Count: updated at: Tue, 02 Mar 2021 14:26:12 GMT